Location: Beverley
(50.2667°N, 107.9667°W)
Time: 23:11:28
(UTC+00:00)

Envisat - Pass Details

Date: 25 January 2022
Orbit: 764 x 765 km, 98.2° (Epoch: 21 May)

Event Time Altitude Azimuth Distance (km) Brightness Sun altitude
Rises 13:13:03 0° 8° (N) 3,244 6.2 -16.2°
Reaches altitude 10° 13:15:31 10° 359° (N) 2,313 5.4 -15.8°
Maximum altitude 13:20:04 34° 296° (WNW) 1,241 3.6 -15.1°
Drops below altitude 10° 13:24:37 10° 232° (SW) 2,300 5.1 -14.3°
Sets 13:27:04 0° 224° (SW) 3,222 5.9 -14.0°
